FW6020 Weather Reports


time (UTC)temp
C
wind
direction
speed
KPH
gust
KPH
rain 1hr
cm
rain 24hr
cm
rain mn
cm
humidity
%
barometer
mb
20260507000916 7 0.0 0.0 0.00 1.35 1.35 70 1010.6
20260506235916 7 0.0 0.0 0.00 1.35 1.35 70 1010.5
20260506234916 7 158 1.6 3.2 0.00 1.35 1.35 70 1010.4
20260506233916 7 0.0 1.6 0.00 1.35 1.35 69 1010.2
20260506232916 7 0.0 0.0 0.00 1.35 1.35 69 1009.9
20260506231916 7 0.0 0.0 0.00 1.35 1.35 70 1009.8
20260506230915 7 158 1.6 4.8 0.00 1.35 1.35 71 1009.7
20260506225956 7 0.0 0.0 0.00 1.35 1.35 72 1009.9
20260506224936 7 0.0 0.0 0.00 1.35 1.35 72 1009.6
20260506223917 7 0.0 0.0 0.00 1.35 1.35 72 1009.9
20260506222915 7 0.0 1.6 0.00 1.35 1.35 72 1010.0
20260506221915 7 158 1.6 3.2 0.00 1.35 1.35 73 1010.0
20260506220915 7 0.0 1.6 0.00 1.35 1.35 73 1010.0
20260506215915 7 0.0 3.2 0.00 1.35 1.35 73 1010.0
20260506214915 7 0.0 4.8 0.00 1.35 1.35 72 1009.9
20260506213915 7 338 3.2 4.8 0.00 1.35 1.35 72 1009.8
20260506212915 7 225 3.2 6.4 0.00 1.35 1.35 72 1009.8
20260506211935 7 0.0 3.2 0.00 1.35 1.35 72 1009.8
20260506210915 7 338 4.8 9.7 0.00 1.35 1.35 72 1009.7
20260506205918 7 338 4.8 6.4 0.03 1.35 1.35 73 1009.6
20260506204917 7 180 3.2 4.8 0.03 1.35 1.35 73 1010.0
20260506203917 7 0.0 1.6 0.03 1.35 1.35 74 1010.1
20260506202917 7 338 3.2 6.4 0.03 1.35 1.35 74 1010.0
20260506201938 7 0.0 0.0 0.03 1.35 1.35 74 1009.9
20260506200917 7 0.0 1.6 0.05 1.35 1.35 74 1009.9
20260506195917 7 315 3.2 6.4 0.03 1.35 1.32 74 1009.9
20260506194917 7 338 1.6 6.4 0.03 1.40 1.32 74 1009.9
20260506193917 7 248 6.4 9.7 0.03 1.40 1.32 74 1009.8
20260506192918 7 203 1.6 9.7 0.03 1.40 1.32 74 1009.8
20260506191915 7 225 4.8 8.0 0.03 1.40 1.32 75 1009.7
20260506190917 7 180 1.6 6.4 0.00 1.37 1.30 75 1009.6
20260506185958 7 225 1.6 3.2 0.00 1.37 1.30 75 1009.7
20260506184917 7 180 1.6 3.2 0.03 1.37 1.30 77 1009.8
20260506183917 7 180 1.6 6.4 0.03 1.37 1.30 77 1009.9
20260506182917 7 90 1.6 4.8 0.05 1.37 1.30 77 1010.1
20260506181917 7 113 1.6 3.2 0.05 1.37 1.30 77 1010.1
20260506180938 7 315 4.8 9.7 0.10 1.37 1.30 78 1010.2
20260506175917 6 338 4.8 8.0 0.13 1.37 1.30 77 1010.3
20260506174917 6 315 4.8 9.7 0.13 1.45 1.27 77 1010.3
20260506173917 6 158 3.2 4.8 0.18 1.70 1.27 77 1010.5
20260506172917 6 113 1.6 3.2 0.20 1.70 1.24 77 1010.7
20260506171917 6 0.0 1.6 0.25 1.75 1.24 77 1010.6
20260506170917 6 0.0 1.6 0.23 1.73 1.19 77 1010.7
20260506165917 6 225 1.6 4.8 0.25 1.70 1.17 77 1010.7
20260506164917 6 90 4.8 11.3 0.25 1.68 1.14 77 1010.5
20260506163917 6 45 3.2 4.8 0.25 1.63 1.09 77 1010.8
20260506162917 6 248 3.2 8.0 0.25 1.57 1.04 77 1010.9
20260506161937 6 23 1.6 4.8 0.25 1.52 0.99 77 1010.9
20260506160917 6 0.0 1.6 0.25 1.50 0.97 77 1010.9
20260506155917 6 45 1.6 4.8 0.25 1.45 0.91 77 1011.0
20260506154917 6 338 3.2 6.4 0.28 1.42 0.89 76 1011.1
20260506153917 6 180 3.2 9.7 0.25 1.37 0.84 76 1011.3
20260506152917 6 338 3.2 6.4 0.25 1.32 0.79 76 1011.5
20260506151917 6 338 3.2 4.8 0.23 1.27 0.74 76 1011.6
20260506150917 6 180 1.6 3.2 0.23 1.24 0.71 75 1011.5
20260506145917 6 0.0 0.0 0.20 1.19 0.66 75 1011.3
20260506144917 6 135 3.2 9.7 0.18 1.14 0.61 74 1011.1
20260506143917 6 338 4.8 11.3 0.18 1.12 0.58 74 1011.2
20260506143018 6 0 3.2 6.4 0.13 1.07 0.53 74 1011.4
20260506141917 6 315 4.8 8.0 0.13 1.04 0.51 73 1011.3
20260506140917 6 338 6.4 9.7 0.13 1.02 0.48 73 1011.4
20260506135937 6 315 6.4 9.7 0.13 0.99 0.46 72 1011.2
20260506134917 6 0 4.8 8.0 0.15 0.97 0.43 72 1011.5
20260506133918 6 90 4.8 8.0 0.15 0.94 0.41 71 1011.2
20260506132917 6 338 3.2 6.4 0.18 0.94 0.41 71 1011.1
20260506131938 6 338 4.8 9.7 0.18 0.91 0.38 71 1011.3
20260506130917 6 180 1.6 4.8 0.18 0.89 0.36 70 1011.5
20260506125916 6 338 1.6 4.8 0.18 0.86 0.33 70 1011.5
20260506124937 6 0.0 1.6 0.13 0.81 0.28 69 1011.6
20260506123917 6 68 4.8 8.0 0.13 0.79 0.25 69 1011.6
20260506122917 7 0.0 1.6 0.13 0.76 0.23 69 1011.8
20260506121936 7 338 1.6 4.8 0.10 0.74 0.20 69 1011.5
20260506120916 7 0.0 1.6 0.10 0.71 0.18 68 1011.8
20260506115916 7 90 1.6 1.6 0.08 0.69 0.15 68 1012.0
20260506114917 7 203 1.6 3.2 0.08 0.69 0.15 68 1012.2
20260506113917 7 0.0 0.0 0.08 0.66 0.13 67 1012.1
20260506112937 7 0.0 0.0 0.05 0.64 0.10 67 1011.8
20260506111916 7 0.0 0.0 0.05 0.64 0.10 66 1011.5
20260506110916 8 0.0 1.6 0.05 0.61 0.08 67 1011.5
20260506105917 8 180 1.6 1.6 0.05 0.61 0.08 68 1011.4
20260506104916 8 0.0 0.0 0.05 0.61 0.08 68 1011.4
20260506103917 8 0.0 0.0 0.03 0.58 0.05 66 1011.5
20260506102916 8 0.0 0.0 0.03 0.58 0.05 66 1011.4
20260506101936 8 0.0 0.0 0.03 0.58 0.05 65 1011.2
20260506100936 8 180 3.2 4.8 0.00 0.56 0.03 65 1010.9
20260506095916 8 0.0 0.0 0.03 0.56 0.03 63 1011.5
20260506094916 8 0.0 4.8 0.03 0.56 0.03 64 1011.2
20260506093916 8 45 3.2 4.8 0.03 0.56 0.03 65 1011.1
20260506092916 8 90 1.6 4.8 0.03 0.56 0.03 66 1011.4
20260506091916 8 0.0 0.0 0.03 0.56 0.03 66 1011.4
20260506090916 8 315 1.6 3.2 0.03 0.56 0.03 64 1011.5
20260506085917 9 0.0 0.0 0.00 0.53 0.00 61 1012.1
20260506084916 9 0.0 0.0 0.00 0.53 0.00 61 1011.2
20260506083916 10 0.0 1.6 0.00 0.53 0.00 61 1011.6
20260506082936 10 90 4.8 4.8 0.00 0.53 0.00 60 1011.3
20260506081916 10 90 1.6 6.4 0.00 0.53 0.00 59 1011.3
20260506080917 10 0.0 1.6 0.00 0.53 0.00 59 1011.5
20260506072936 11 0.0 1.6 0.00 0.53 0.00 56 1011.0
20260506071916 11 180 4.8 9.7 0.00 0.53 0.00 56 1011.0
20260506070916 11 203 6.4 8.0 0.00 0.53 0.00 57 1011.2
20260506061916 11 180 1.6 3.2 0.00 0.53 0.00 59 1011.2
20260506060936 12 0.0 1.6 0.00 0.53 0.00 59 1011.2
20260506050916 12 225 12.9 19.3 0.00 0.53 0.00 62 1011.3
20260506044956 12 225 9.7 16.1 0.00 0.53 0.00 60 1011.0
20260506043916 12 225 8.0 14.5 0.00 0.53 0.00 60 1010.6
20260506042916 13 225 11.3 17.7 0.00 0.53 0.00 60 1010.7
20260506041917 13 225 6.4 19.3 0.00 0.53 0.00 60 1010.5
20260506040916 13 203 4.8 8.0 0.00 0.53 0.00 59 1010.5
20260506035915 13 203 8.0 12.9 0.00 0.53 0.53 58 1010.4
20260506034916 13 225 8.0 11.3 0.00 0.53 0.53 58 1010.2
20260506033936 13 225 8.0 11.3 0.00 0.53 0.53 58 1009.9
20260506032916 13 203 3.2 3.2 0.00 0.53 0.53 57 1010.0
20260506031916 14 0.0 0.0 0.00 0.53 0.53 55 1010.1
20260506030916 15 203 9.7 14.5 0.00 0.53 0.53 54 1009.8
20260506025936 15 225 12.9 20.9 0.00 0.53 0.53 53 1009.3
20260506024916 15 225 12.9 16.1 0.00 0.53 0.53 52 1009.2
20260506023916 15 203 14.5 20.9 0.00 0.53 0.53 51 1009.4
20260506022917 15 180 12.9 20.9 0.00 0.53 0.53 50 1009.5
20260506021916 16 203 14.5 20.9 0.00 0.53 0.53 49 1009.3
20260506020935 16 225 16.1 29.0 0.00 0.53 0.53 48 1009.0
20260506015916 16 225 16.1 20.9 0.00 0.53 0.53 46 1009.1
20260506014916 16 203 8.0 11.3 0.00 0.53 0.53 48 1009.0
20260506013915 16 225 8.0 11.3 0.00 0.53 0.53 47 1009.2
20260506012915 16 225 6.4 11.3 0.00 0.53 0.53 48 1008.6
20260506011915 16 203 11.3 19.3 0.00 0.53 0.53 52 1008.4
20260506010915 17 225 9.7 14.5 0.00 0.53 0.53 53 1008.1
20260506005915 18 180 1.6 3.2 0.00 0.53 0.53 52 1007.7
20260506004917 18 225 12.9 19.3 0.00 0.53 0.53 50 1007.3
20260506003915 19 203 11.3 14.5 0.00 0.53 0.53 51 1007.1
20260506002935 19 158 11.3 19.3 0.00 0.53 0.53 51 1006.8
20260506001915 19 180 8.0 12.9 0.00 0.53 0.53 50 1006.6